When you browse on this site, cookies collect data to enhance your experience and personalize the content and advertising you see.
Visit our Privacy Policy to learn more. By continuing to use the site, you agree to this use of cookies and data.
  • In Latvia
  • List of Countries
  • For 7 days
  • Water Temperature
  • Weather Map
  • Weather Widgets
  • user-avatar
    Login

    Hourly Weather Sevan

    Today, 21 January, Tuesday

    Time Temperature Precipitation Wind Pressure Humidity
    00:00 -7°C° 0 mm 1 mps 641 mmHg 76%
    01:00 -8°C° 0 mm 1 mps 641 mmHg 75%
    02:00 -8°C° 0 mm 1 mps 641 mmHg 75%
    03:00 -8°C° 0 mm 1 mps 641 mmHg 74%
    04:00 -8°C° 0 mm 1 mps 640 mmHg 73%
    05:00 -8°C° 0 mm 1 mps 640 mmHg 72%
    06:00 -8°C° 0 mm 1 mps 640 mmHg 71%
    07:00 -7°C° 0 mm 1 mps 641 mmHg 70%
    08:00 -7°C° 0 mm 1 mps 641 mmHg 68%
    09:00 -4°C° 0 mm 1 mps 642 mmHg 69%
    10:00 -3°C° 0 mm 1 mps 642 mmHg 69%
    11:00 -2°C° 0 mm 1 mps 642 mmHg 70%
    12:00 -1°C° 0 mm 1 mps 642 mmHg 70%
    13:00 -1°C° 0 mm 1 mps 641 mmHg 72%
    14:00 -1°C° 0 mm 1 mps 641 mmHg 74%
    15:00 -2°C° 0 mm 0 mps 641 mmHg 75%
    16:00 -2°C° 0 mm 1 mps 641 mmHg 74%
    17:00 -4°C° 0 mm 1 mps 641 mmHg 73%
    18:00 -7°C° 0 mm 2 mps 641 mmHg 71%
    19:00 -7°C° 0 mm 2 mps 641 mmHg 69%
    20:00 -8°C° 0 mm 2 mps 641 mmHg 67%
    21:00 -8°C° 0 mm 2 mps 642 mmHg 66%
    22:00 -7°C° 0 mm 1 mps 641 mmHg 66%
    23:00 -8°C° 0 mm 1 mps 641 mmHg 66%

    Tomorrow, 22 January, Wednesday

    Time Temperature Precipitation Wind Pressure Humidity
    00:00 -8°C° 0 mm 1 mps 641 mmHg 66%
    01:00 -8°C° 0 mm 1 mps 641 mmHg 67%
    02:00 -8°C° 0 mm 1 mps 641 mmHg 67%
    03:00 -9°C° 0 mm 1 mps 641 mmHg 67%
    04:00 -9°C° 0 mm 1 mps 641 mmHg 68%
    05:00 -9°C° 0 mm 1 mps 641 mmHg 68%
    06:00 -9°C° 0 mm 1 mps 641 mmHg 69%
    07:00 -8°C° 0 mm 1 mps 641 mmHg 69%
    08:00 -8°C° 0 mm 1 mps 641 mmHg 69%
    09:00 -7°C° 0 mm 1 mps 642 mmHg 69%
    10:00 -6°C° 0 mm 1 mps 641 mmHg 70%
    11:00 -4°C° 0 mm 1 mps 641 mmHg 70%
    12:00 -3°C° 0 mm 1 mps 641 mmHg 71%
    13:00 -3°C° 0 mm 1 mps 640 mmHg 72%
    14:00 -3°C° 0 mm 1 mps 640 mmHg 72%
    15:00 -3°C° 0 mm 1 mps 640 mmHg 73%
    16:00 -4°C° 0 mm 1 mps 640 mmHg 72%
    17:00 -6°C° 0 mm 1 mps 639 mmHg 72%
    18:00 -8°C° 0 mm 2 mps 639 mmHg 72%
    19:00 -8°C° 0 mm 2 mps 639 mmHg 71%
    20:00 -8°C° 0 mm 2 mps 639 mmHg 69%
    21:00 -8°C° 0 mm 2 mps 639 mmHg 68%
    22:00 -9°C° 0 mm 2 mps 638 mmHg 68%
    23:00 -9°C° 0 mm 2 mps 638 mmHg 68%

    Day after tomorrow, 23 January, Thursday

    Time Temperature Precipitation Wind Pressure Humidity
    00:00 -10°C° 0 mm 2 mps 637 mmHg 68%
    01:00 -10°C° 0 mm 2 mps 637 mmHg 70%
    02:00 -10°C° 0 mm 2 mps 636 mmHg 71%
    03:00 -10°C° 0 mm 2 mps 636 mmHg 73%
    04:00 -10°C° 0 mm 2 mps 635 mmHg 74%
    05:00 -12°C° 0 mm 2 mps 635 mmHg 74%
    06:00 -10°C° 0 mm 1 mps 634 mmHg 75%
    07:00 -9°C° 0 mm 1 mps 634 mmHg 75%
    08:00 -8°C° 0 mm 1 mps 634 mmHg 74%
    09:00 -7°C° 0 mm 1 mps 634 mmHg 74%
    10:00 -7°C° 0 mm 1 mps 634 mmHg 73%
    11:00 -6°C° 0 mm 1 mps 634 mmHg 73%
    12:00 -6°C° 0 mm 2 mps 633 mmHg 72%
    13:00 -4°C° 0 mm 1 mps 633 mmHg 72%
    14:00 -3°C° 0 mm 1 mps 633 mmHg 72%
    15:00 -3°C° 0 mm 1 mps 632 mmHg 72%
    16:00 -4°C° 0 mm 1 mps 632 mmHg 76%
    17:00 -6°C° 0 mm 1 mps 633 mmHg 79%
    18:00 -6°C° 0 mm 1 mps 633 mmHg 83%
    19:00 -6°C° 0.2 mm 1 mps 633 mmHg 86%
    20:00 -6°C° 0.2 mm 1 mps 633 mmHg 90%
    21:00 -6°C° 0.2 mm 1 mps 633 mmHg 93%
    22:00 -6°C° 0.3 mm 1 mps 633 mmHg 94%
    23:00 -7°C° 0.3 mm 1 mps 633 mmHg 94%

    24 January, Friday

    Time Temperature Precipitation Wind Pressure Humidity
    00:00 -7°C° 0.3 mm 0 mps 633 mmHg 94%
    01:00 -7°C° 0.1 mm 0 mps 633 mmHg 94%
    02:00 -7°C° 0.1 mm 0 mps 633 mmHg 93%
    03:00 -7°C° 0.1 mm 1 mps 633 mmHg 92%
    04:00 -8°C° 0 mm 1 mps 633 mmHg 91%
    05:00 -8°C° 0 mm 1 mps 634 mmHg 89%
    06:00 -9°C° 0 mm 1 mps 634 mmHg 88%
    07:00 -8°C° 0 mm 1 mps 634 mmHg 86%
    08:00 -8°C° 0 mm 1 mps 635 mmHg 84%
    09:00 -7°C° 0 mm 1 mps 636 mmHg 82%
    10:00 -6°C° 0 mm 1 mps 636 mmHg 78%
    11:00 -6°C° 0 mm 2 mps 636 mmHg 74%
    12:00 -6°C° 0 mm 2 mps 637 mmHg 70%
    13:00 -6°C° 0 mm 2 mps 637 mmHg 68%
    14:00 -7°C° 0 mm 3 mps 637 mmHg 67%
    15:00 -7°C° 0 mm 3 mps 637 mmHg 65%
    16:00 -8°C° 0 mm 3 mps 638 mmHg 64%
    17:00 -9°C° 0 mm 3 mps 638 mmHg 64%
    18:00 -12°C° 0 mm 4 mps 638 mmHg 63%
    19:00 -12°C° 0 mm 4 mps 639 mmHg 63%
    20:00 -14°C° 0 mm 4 mps 639 mmHg 62%
    21:00 -13°C° 0 mm 3 mps 640 mmHg 62%
    22:00 -14°C° 0 mm 3 mps 641 mmHg 62%
    23:00 -14°C° 0 mm 3 mps 641 mmHg 61%

    25 January, Saturday

    Time Temperature Precipitation Wind Pressure Humidity
    00:00 -15°C° 0 mm 3 mps 642 mmHg 61%
    01:00 -15°C° 0 mm 3 mps 642 mmHg 61%
    02:00 -14°C° 0 mm 2 mps 642 mmHg 61%
    03:00 -15°C° 0 mm 2 mps 642 mmHg 61%
    04:00 -15°C° 0 mm 2 mps 643 mmHg 60%
    05:00 -15°C° 0 mm 2 mps 643 mmHg 59%
    06:00 -15°C° 0 mm 2 mps 643 mmHg 58%
    07:00 -14°C° 0 mm 2 mps 644 mmHg 57%
    08:00 -11°C° 0 mm 1 mps 645 mmHg 55%
    09:00 -10°C° 0 mm 1 mps 645 mmHg 54%
    10:00 -9°C° 0 mm 1 mps 646 mmHg 54%
    11:00 -8°C° 0 mm 1 mps 646 mmHg 53%
    12:00 -6°C° 0 mm 0 mps 646 mmHg 53%
    13:00 -6°C° 0 mm 0 mps 646 mmHg 58%
    14:00 -6°C° 0 mm 0 mps 645 mmHg 62%
    15:00 -6°C° 0 mm 0 mps 645 mmHg 67%
    16:00 -8°C° 0 mm 1 mps 645 mmHg 64%
    17:00 -9°C° 0 mm 1 mps 644 mmHg 62%
    18:00 -11°C° 0 mm 1 mps 644 mmHg 59%
    19:00 -11°C° 0 mm 1 mps 644 mmHg 56%
    20:00 -11°C° 0 mm 1 mps 644 mmHg 53%
    21:00 -11°C° 0 mm 1 mps 644 mmHg 51%
    22:00 -11°C° 0 mm 1 mps 644 mmHg 50%
    23:00 -11°C° 0 mm 1 mps 644 mmHg 49%

    26 January, Sunday

    Time Temperature Precipitation Wind Pressure Humidity
    00:00 -11°C° 0 mm 1 mps 644 mmHg 48%
    01:00 -11°C° 0 mm 1 mps 644 mmHg 48%
    02:00 -11°C° 0 mm 1 mps 644 mmHg 47%
    03:00 -11°C° 0 mm 1 mps 644 mmHg 47%
    04:00 -11°C° 0 mm 1 mps 643 mmHg 49%
    05:00 -11°C° 0 mm 1 mps 643 mmHg 50%
    06:00 -11°C° 0 mm 1 mps 643 mmHg 52%
    07:00 -10°C° 0 mm 1 mps 644 mmHg 53%
    08:00 -9°C° 0 mm 1 mps 644 mmHg 55%
    09:00 -8°C° 0 mm 1 mps 645 mmHg 57%
    10:00 -7°C° 0 mm 1 mps 645 mmHg 58%
    11:00 -6°C° 0 mm 1 mps 644 mmHg 59%
    12:00 -4°C° 0 mm 1 mps 644 mmHg 59%
    13:00 -4°C° 0 mm 1 mps 644 mmHg 61%
    14:00 -3°C° 0 mm 1 mps 644 mmHg 63%
    15:00 -3°C° 0 mm 1 mps 643 mmHg 64%
    16:00 -6°C° 0 mm 1 mps 643 mmHg 63%
    17:00 -7°C° 0 mm 1 mps 643 mmHg 61%
    18:00 -8°C° 0 mm 1 mps 643 mmHg 60%
    19:00 -8°C° 0 mm 1 mps 642 mmHg 59%
    20:00 -8°C° 0 mm 1 mps 642 mmHg 58%
    21:00 -8°C° 0 mm 1 mps 642 mmHg 57%
    22:00 -8°C° 0 mm 1 mps 642 mmHg 56%
    23:00 -8°C° 0 mm 1 mps 642 mmHg 56%
    Show more